Track CUBEBUG 1 now! 10-day predictions CUBEBUG 1 is classified as:
1 39153U 13018D 21017.29286832 .00000227 00000-0 36297-4 0 9997 2 39153 97.9888 123.5665 0018093 121.5131 238.7852 14.80837607417433